BEL4CA LFRS-ELLX

Flight info

Callsign BEL4CA
Flight time 1h 3m
Altitude 32000
Route ANG UL976 OBATO UM163 LEQOS DCT CTL DCT MMD
Aircraft A319/M-SDE3FGHIRWY/LB1

Departure

Time 2026-04-30 13:09
Airport Nantes Atlantique Airport (LFRS)

Arrival

Time 2026-04-30 14:12
Airport Luxembourg-Findel International Airport (ELLX)
Time Latitude Longitude Altitude Speed Heading
2026-04-30 12:45 47.15398 -1.60327 100 ft 0 kts 207°
2026-04-30 12:56 47.15409 -1.60319 100 ft 4 kts 216°
2026-04-30 12:56 47.15425 -1.60291 100 ft 4 kts 258°
2026-04-30 12:57 47.15424 -1.60260 99 ft 1 kts 298°
2026-04-30 12:57 47.15423 -1.60259 99 ft 0 kts 298°
2026-04-30 13:00 47.15424 -1.60261 99 ft 1 kts 298°
2026-04-30 13:00 47.15430 -1.60280 100 ft 3 kts 295°
2026-04-30 13:00 47.15440 -1.60310 100 ft 4 kts 298°
2026-04-30 13:01 47.15461 -1.60349 100 ft 7 kts 314°
2026-04-30 13:01 47.15508 -1.60401 100 ft 10 kts 326°
2026-04-30 13:01 47.15560 -1.60484 99 ft 12 kts 305°
2026-04-30 13:01 47.15584 -1.60592 99 ft 12 kts 248°
2026-04-30 13:02 47.15508 -1.60659 99 ft 14 kts 207°
2026-04-30 13:02 47.15424 -1.60724 96 ft 14 kts 208°
2026-04-30 13:02 47.15340 -1.60788 97 ft 13 kts 207°
2026-04-30 13:02 47.15245 -1.60861 98 ft 18 kts 207°
2026-04-30 13:03 47.15139 -1.60942 98 ft 17 kts 207°
2026-04-30 13:03 47.15026 -1.61028 96 ft 19 kts 207°
2026-04-30 13:03 47.14908 -1.61117 97 ft 19 kts 207°
2026-04-30 13:03 47.14787 -1.61209 97 ft 20 kts 207°
2026-04-30 13:04 47.14672 -1.61297 96 ft 19 kts 207°
2026-04-30 13:04 47.14546 -1.61393 92 ft 20 kts 207°
2026-04-30 13:04 47.14419 -1.61490 91 ft 21 kts 207°
2026-04-30 13:04 47.14284 -1.61591 86 ft 21 kts 207°
2026-04-30 13:05 47.14197 -1.61658 84 ft 8 kts 208°
2026-04-30 13:05 47.14188 -1.61665 82 ft 0 kts 207°
2026-04-30 13:06 47.14176 -1.61679 81 ft 7 kts 223°
2026-04-30 13:06 47.14149 -1.61777 79 ft 12 kts 252°
2026-04-30 13:07 47.14148 -1.61889 84 ft 11 kts 299°
2026-04-30 13:07 47.14214 -1.61913 85 ft 8 kts 26°
2026-04-30 13:07 47.14220 -1.61909 84 ft 0 kts 27°
2026-04-30 13:08 47.14277 -1.61866 85 ft 35 kts 27°
2026-04-30 13:08 47.14749 -1.61506 97 ft 114 kts 27°
2026-04-30 13:08 47.15646 -1.60819 214 ft 162 kts 29°
2026-04-30 13:09 47.16587 -1.60025 981 ft 155 kts 46°
2026-04-30 13:09 47.16919 -1.58615 1573 ft 149 kts 105°
2026-04-30 13:09 47.16389 -1.57310 2115 ft 158 kts 137°
2026-04-30 13:09 47.15705 -1.55910 2507 ft 186 kts 109°
2026-04-30 13:10 47.15521 -1.53867 2896 ft 215 kts 98°
2026-04-30 13:10 47.15361 -1.51554 3484 ft 240 kts 99°
2026-04-30 13:10 47.15179 -1.49009 4257 ft 257 kts 98°
2026-04-30 13:10 47.14991 -1.46375 5430 ft 263 kts 98°
2026-04-30 13:11 47.14798 -1.43697 6485 ft 270 kts 98°
2026-04-30 13:11 47.14595 -1.40893 7465 ft 275 kts 98°
2026-04-30 13:11 47.14390 -1.38078 8497 ft 278 kts 98°
2026-04-30 13:11 47.14220 -1.35265 9536 ft 283 kts 92°
2026-04-30 13:12 47.14496 -1.32376 10471 ft 294 kts 76°
2026-04-30 13:12 47.15389 -1.29546 10981 ft 319 kts 57°
2026-04-30 13:12 47.16963 -1.27151 11703 ft 333 kts 40°
2026-04-30 13:13 47.20697 -1.22961 13477 ft 343 kts 39°
2026-04-30 13:13 47.22596 -1.20806 14371 ft 347 kts 39°
2026-04-30 13:13 47.26451 -1.16416 15978 ft 354 kts 39°
2026-04-30 13:14 47.28409 -1.14180 16740 ft 358 kts 39°
2026-04-30 13:14 47.30387 -1.11916 17486 ft 362 kts 40°
2026-04-30 13:14 47.34413 -1.07315 18906 ft 370 kts 40°
2026-04-30 13:15 47.36459 -1.04980 19579 ft 373 kts 40°
2026-04-30 13:15 47.40600 -1.00249 20924 ft 380 kts 40°
2026-04-30 13:15 47.42696 -0.97848 21604 ft 383 kts 40°
2026-04-30 13:16 47.44809 -0.95420 22267 ft 386 kts 40°
2026-04-30 13:16 47.46938 -0.92969 22930 ft 390 kts 40°
2026-04-30 13:16 47.49054 -0.90531 23585 ft 393 kts 40°
2026-04-30 13:17 47.53402 -0.85518 24655 ft 400 kts 40°
2026-04-30 13:17 47.55606 -0.82989 25166 ft 403 kts 40°
2026-04-30 13:17 47.59354 -0.78780 25984 ft 409 kts 40°
2026-04-30 13:18 47.62414 -0.75367 26637 ft 414 kts 39°
2026-04-30 13:18 47.67049 -0.70178 27623 ft 421 kts 40°
2026-04-30 13:18 47.69386 -0.67540 28096 ft 424 kts 40°
2026-04-30 13:19 47.71740 -0.64873 28566 ft 427 kts 40°
2026-04-30 13:19 47.74112 -0.62180 29029 ft 431 kts 40°
2026-04-30 13:19 47.76501 -0.59466 29483 ft 434 kts 40°
2026-04-30 13:19 47.78879 -0.56773 29928 ft 437 kts 40°
2026-04-30 13:20 47.81308 -0.54023 30336 ft 440 kts 40°
2026-04-30 13:20 47.83747 -0.51256 30746 ft 442 kts 40°
2026-04-30 13:20 47.86199 -0.48469 31149 ft 444 kts 40°
2026-04-30 13:20 47.88654 -0.45667 31532 ft 446 kts 40°
2026-04-30 13:21 47.91126 -0.42844 31906 ft 448 kts 40°
2026-04-30 13:21 47.93605 -0.40017 32047 ft 447 kts 40°
2026-04-30 13:21 47.96038 -0.37248 32071 ft 430 kts 40°
2026-04-30 13:22 48.00648 -0.31978 32070 ft 411 kts 40°
2026-04-30 13:22 48.06864 -0.23507 32066 ft 401 kts 58°
2026-04-30 13:23 48.10636 -0.12452 32070 ft 398 kts 68°
2026-04-30 13:24 48.15346 0.02516 32062 ft 397 kts 67°
2026-04-30 13:25 48.19991 0.17460 32060 ft 397 kts 67°
2026-04-30 13:26 48.25797 0.36225 32057 ft 397 kts 67°
2026-04-30 13:28 48.31595 0.55100 32059 ft 399 kts 67°
2026-04-30 13:28 48.35066 0.66479 32063 ft 400 kts 67°
2026-04-30 13:29 48.39670 0.81647 32074 ft 400 kts 68°
2026-04-30 13:31 48.45397 1.00681 32092 ft 397 kts 68°
2026-04-30 13:32 48.51068 1.19611 32096 ft 395 kts 68°
2026-04-30 13:33 48.55555 1.34748 32109 ft 394 kts 69°
2026-04-30 13:34 48.58903 1.46049 32122 ft 392 kts 69°
2026-04-30 13:35 48.63294 1.61044 32110 ft 391 kts 69°
2026-04-30 13:36 48.67282 1.76262 32124 ft 388 kts 74°
2026-04-30 13:36 48.69975 1.87764 32137 ft 386 kts 73°
2026-04-30 13:37 48.72417 1.97924 32134 ft 385 kts 73°
2026-04-30 13:38 48.75162 2.09361 32130 ft 385 kts 73°
2026-04-30 13:39 48.79146 2.24450 32126 ft 385 kts 70°
2026-04-30 13:40 48.82202 2.35706 32155 ft 384 kts 71°
2026-04-30 13:40 48.84190 2.43232 32153 ft 384 kts 71°
2026-04-30 13:41 48.86168 2.50761 32151 ft 384 kts 71°
2026-04-30 13:41 48.88153 2.58284 32150 ft 384 kts 71°
2026-04-30 13:42 48.90134 2.65811 32149 ft 383 kts 71°
2026-04-30 13:42 48.93069 2.77047 32153 ft 382 kts 71°
2026-04-30 13:43 48.95030 2.84568 32154 ft 382 kts 71°
2026-04-30 13:43 48.96985 2.92078 32152 ft 382 kts 71°
2026-04-30 13:44 48.98929 2.99593 32153 ft 382 kts 71°
2026-04-30 13:44 49.00869 3.07116 32152 ft 381 kts 71°
2026-04-30 13:45 49.03769 3.18395 32159 ft 381 kts 71°
2026-04-30 13:46 49.05695 3.25902 32155 ft 380 kts 71°
2026-04-30 13:46 49.07611 3.33421 32153 ft 380 kts 71°
2026-04-30 13:47 49.09508 3.40886 32166 ft 380 kts 71°
2026-04-30 13:47 49.11412 3.48402 32169 ft 380 kts 71°
2026-04-30 13:48 49.13308 3.55919 32165 ft 379 kts 71°
2026-04-30 13:48 49.14784 3.63623 32168 ft 378 kts 77°
2026-04-30 13:49 49.16111 3.71395 32171 ft 378 kts 77°
2026-04-30 13:49 49.17430 3.79166 32190 ft 378 kts 77°
2026-04-30 13:50 49.18744 3.86955 31964 ft 379 kts 77°
2026-04-30 13:50 49.20042 3.94664 31129 ft 371 kts 78°
2026-04-30 13:50 49.20673 3.98441 30666 ft 369 kts 78°
2026-04-30 13:51 49.21313 4.02271 30198 ft 367 kts 78°
2026-04-30 13:51 49.21941 4.06047 29700 ft 364 kts 78°
2026-04-30 13:51 49.22561 4.09780 29268 ft 361 kts 78°
2026-04-30 13:51 49.23177 4.13479 28831 ft 357 kts 77°
2026-04-30 13:52 49.23787 4.17145 28424 ft 354 kts 77°
2026-04-30 13:52 49.24392 4.20777 28019 ft 350 kts 77°
2026-04-30 13:52 49.24988 4.24371 27627 ft 346 kts 77°
2026-04-30 13:52 49.25565 4.27877 27237 ft 342 kts 77°
2026-04-30 13:53 49.26142 4.31395 26853 ft 341 kts 77°
2026-04-30 13:53 49.26722 4.34938 26467 ft 344 kts 77°
2026-04-30 13:53 49.27302 4.38480 26073 ft 343 kts 77°
2026-04-30 13:53 49.27880 4.42017 25657 ft 341 kts 77°
2026-04-30 13:54 49.28449 4.45525 25255 ft 339 kts 77°
2026-04-30 13:54 49.29013 4.49010 24832 ft 336 kts 77°
2026-04-30 13:54 49.29570 4.52448 24411 ft 334 kts 77°
2026-04-30 13:54 49.30131 4.55909 23980 ft 331 kts 77°
2026-04-30 13:55 49.30686 4.59321 23507 ft 329 kts 77°
2026-04-30 13:55 49.31235 4.62715 23069 ft 327 kts 77°
2026-04-30 13:55 49.31776 4.66081 22643 ft 324 kts 77°
2026-04-30 13:55 49.32314 4.69434 22218 ft 323 kts 77°
2026-04-30 13:56 49.32844 4.72724 21802 ft 321 kts 77°
2026-04-30 13:56 49.33377 4.76034 21397 ft 319 kts 78°
2026-04-30 13:56 49.33906 4.79338 20986 ft 319 kts 78°
2026-04-30 13:56 49.34432 4.82626 20583 ft 317 kts 78°
2026-04-30 13:57 49.34952 4.85899 20173 ft 315 kts 78°
2026-04-30 13:57 49.35465 4.89160 19777 ft 314 kts 78°
2026-04-30 13:57 49.35977 4.92412 19371 ft 313 kts 78°
2026-04-30 13:57 49.36487 4.95652 18970 ft 311 kts 78°
2026-04-30 13:58 49.36994 4.98872 18583 ft 310 kts 78°
2026-04-30 13:58 49.38002 5.05267 17764 ft 306 kts 78°
2026-04-30 13:58 49.38499 5.08432 17373 ft 304 kts 78°
2026-04-30 13:59 49.38995 5.11590 16922 ft 303 kts 78°
2026-04-30 13:59 49.39614 5.14658 16497 ft 300 kts 73°
2026-04-30 13:59 49.40267 5.17634 16075 ft 295 kts 73°
2026-04-30 13:59 49.40910 5.20592 15674 ft 291 kts 74°
2026-04-30 14:00 49.41554 5.23554 15249 ft 292 kts 73°
2026-04-30 14:00 49.42843 5.29493 14430 ft 292 kts 74°
2026-04-30 14:00 49.43482 5.32425 14026 ft 286 kts 73°
2026-04-30 14:01 49.44107 5.35299 13580 ft 281 kts 74°
2026-04-30 14:01 49.44716 5.38116 13141 ft 275 kts 74°
2026-04-30 14:01 49.45311 5.40870 12725 ft 268 kts 73°
2026-04-30 14:01 49.45889 5.43555 12328 ft 264 kts 74°
2026-04-30 14:02 49.46462 5.46249 11926 ft 266 kts 75°
2026-04-30 14:02 49.47038 5.48960 11528 ft 268 kts 74°
2026-04-30 14:02 49.47616 5.51665 11132 ft 264 kts 74°
2026-04-30 14:02 49.48186 5.54308 10746 ft 258 kts 74°
2026-04-30 14:03 49.48693 5.56935 10372 ft 256 kts 81°
2026-04-30 14:03 49.48914 5.59637 9976 ft 253 kts 85°
2026-04-30 14:03 49.49107 5.62336 9558 ft 254 kts 85°
2026-04-30 14:03 49.49301 5.65037 9137 ft 254 kts 85°
2026-04-30 14:04 49.49494 5.67705 8727 ft 248 kts 86°
2026-04-30 14:04 49.49681 5.70307 8326 ft 242 kts 86°
2026-04-30 14:04 49.49863 5.72856 7915 ft 237 kts 86°
2026-04-30 14:04 49.50038 5.75316 7496 ft 232 kts 86°
2026-04-30 14:05 49.50213 5.77783 7057 ft 227 kts 86°
2026-04-30 14:05 49.50378 5.80139 6631 ft 223 kts 86°
2026-04-30 14:05 49.50543 5.82490 6171 ft 219 kts 87°
2026-04-30 14:05 49.50706 5.84808 5717 ft 218 kts 87°
2026-04-30 14:06 49.50870 5.87132 5270 ft 217 kts 88°
2026-04-30 14:06 49.51622 5.91579 4386 ft 216 kts 66°
2026-04-30 14:07 49.53089 5.95538 3537 ft 209 kts 65°
2026-04-30 14:07 49.53798 5.97474 3110 ft 207 kts 63°
2026-04-30 14:07 49.54486 5.99315 3002 ft 194 kts 63°
2026-04-30 14:08 49.55736 6.02646 3002 ft 166 kts 65°
2026-04-30 14:08 49.56299 6.04150 3014 ft 158 kts 65°
2026-04-30 14:08 49.57353 6.06966 2908 ft 142 kts 64°
2026-04-30 14:09 49.57817 6.08202 2769 ft 127 kts 65°
2026-04-30 14:09 49.58242 6.09343 2620 ft 120 kts 65°
2026-04-30 14:09 49.59063 6.11544 2304 ft 121 kts 65°
2026-04-30 14:10 49.59479 6.12657 2146 ft 121 kts 65°
2026-04-30 14:10 49.59902 6.13792 1967 ft 121 kts 65°
2026-04-30 14:10 49.60313 6.14891 1788 ft 116 kts 65°
2026-04-30 14:10 49.60724 6.15991 1651 ft 118 kts 65°
2026-04-30 14:11 49.61132 6.17074 1432 ft 115 kts 63°
2026-04-30 14:11 49.61542 6.18164 1321 ft 119 kts 61°
2026-04-30 14:11 49.61937 6.19271 1184 ft 117 kts 58°
2026-04-30 14:11 49.62281 6.20152 1220 ft 73 kts 59°
2026-04-30 14:12 49.62423 6.20523 1231 ft 17 kts 57°
2026-04-30 14:12 49.62436 6.20549 1232 ft 0 kts 48°
2026-04-30 14:12 49.62448 6.20567 1233 ft 10 kts 40°
2026-04-30 14:12 49.62491 6.20597 1234 ft 10 kts 18°
2026-04-30 14:13 49.62547 6.20625 1236 ft 1 kts 19°
2026-04-30 14:13 49.62557 6.20631 1236 ft 2 kts 19°
2026-04-30 14:13 49.62578 6.20643 1246 ft 6 kts 20°
2026-04-30 14:13 49.62622 6.20668 1237 ft 7 kts 20°
2026-04-30 14:14 49.62676 6.20699 1249 ft 9 kts 20°
2026-04-30 14:14 49.62735 6.20733 1245 ft 10 kts 20°
2026-04-30 14:14 49.62801 6.20777 1240 ft 11 kts 36°
2026-04-30 14:14 49.62843 6.20891 1242 ft 15 kts 64°
2026-04-30 14:15 49.62894 6.21057 1233 ft 17 kts 64°
2026-04-30 14:15 49.62947 6.21227 1233 ft 17 kts 64°
2026-04-30 14:15 49.62999 6.21396 1228 ft 17 kts 64°
2026-04-30 14:15 49.63047 6.21549 1226 ft 16 kts 64°
2026-04-30 14:16 49.63093 6.21700 1225 ft 15 kts 64°
2026-04-30 14:16 49.63138 6.21845 1226 ft 13 kts 65°
2026-04-30 14:16 49.63174 6.21911 1228 ft 8 kts 13°
2026-04-30 14:16 49.63223 6.21875 1228 ft 9 kts 329°
2026-04-30 14:17 49.63270 6.21833 1230 ft 8 kts 330°
2026-04-30 14:17 49.63309 6.21784 1230 ft 7 kts 293°
2026-04-30 14:17 49.63306 6.21715 1230 ft 6 kts 301°
2026-04-30 14:17 49.63340 6.21692 1230 ft 4 kts 334°
2026-04-30 14:18 49.63352 6.21682 1230 ft 0 kts 330°